{"data":{"norad_id":59474,"epoch":"2026-05-25T04:25:02.008128Z","epoch_age_seconds":58824,"freshness":"FRESH","line1":"1 59474U 24068V   26145.18405102  .00000306  00000+0  20637-4 0  9998","line2":"2 59474  43.0026 315.4040 0001017 281.1155  78.9582 15.27576181120303","mean_motion":15.27576181,"eccentricity":0.0001017,"inclination_deg":43.0026,"raan_deg":315.404,"arg_perigee_deg":281.1155,"mean_anomaly_deg":78.9582,"bstar":2.0637e-5,"rev_number":12030,"period_min":94.266984384198,"perigee_km":482.3627477344,"apogee_km":483.75831531231,"semimajor_km":6861.1975315234,"source":"CELESTRAK","updated_at":"2026-05-25T13:38:18.951553Z"}}